| time (UTC) | temp C | wind direction | speed KPH | gust KPH | rain 1hr cm | rain 24hr cm | rain mn cm | humidity % | barometer mb |
| 20260504160349 | 22 | 79 | 3.2 | 6.4 | 0.00 | 0.00 | 0.00 | 38 | |
| 20260504150814 | 21 | 194 | 4.8 | 14.5 | 0.00 | 0.00 | 0.00 | 41 | |
| 20260504150310 | 21 | 186 | 4.8 | 6.4 | 0.00 | 0.00 | 0.00 | 39 | |
| 20260504141241 | 20 | 160 | 3.2 | 6.4 | 0.00 | 0.00 | 0.00 | 45 | |
| 20260504140737 | 20 | 127 | 3.2 | 4.8 | 0.00 | 0.00 | 0.00 | 45 | |
| 20260504140233 | 19 | 148 | 3.2 | 3.2 | 0.00 | 0.00 | 0.00 | 46 | |
| 20260504130701 | 15 | 268 | 6.4 | 11.3 | 0.00 | 0.00 | 0.00 | 52 | |
| 20260504130157 | 15 | 130 | 1.6 | 11.3 | 0.00 | 0.00 | 0.00 | 54 | |
| 20260504120121 | 13 | 152 | 0.0 | 3.2 | 0.00 | 0.00 | 0.00 | 54 | |
| 20260504110549 | 7 | 183 | 1.6 | 1.6 | 0.00 | 0.00 | 0.00 | 82 | |
| 20260504100510 | 6 | 219 | 3.2 | 3.2 | 0.00 | 0.00 | 0.00 | 89 | |
| 20260504081904 | 7 | 174 | 1.6 | 3.2 | 0.00 | 0.00 | 0.00 | 80 | |
| 20260504081400 | 6 | 225 | 1.6 | 1.6 | 0.00 | 0.00 | 0.00 | 82 | |
| 20260504080856 | 6 | 159 | 0.0 | 0.0 | 0.00 | 0.00 | 0.00 | 83 | |
| 20260504080354 | 6 | 168 | 0.0 | 1.6 | 0.00 | 0.00 | 0.00 | 83 | |
| 20260504070321 | 6 | 155 | 0.0 | 0.0 | 0.00 | 0.00 | 0.00 | 84 | |
| 20260504060241 | 6 | 153 | 0.0 | 0.0 | 0.00 | 0.00 | 0.00 | 85 | |
| 20260504050709 | 6 | 163 | 0.0 | 0.0 | 0.00 | 0.00 | 0.00 | 86 | |
| 20260504050206 | 6 | 159 | 0.0 | 0.0 | 0.00 | 0.00 | 0.00 | 86 | |
| 20260504045703 | 6 | 155 | 0.0 | 0.0 | 0.00 | 0.00 | 0.00 | 86 | |
| 20260504045157 | 6 | 168 | 0.0 | 0.0 | 0.00 | 0.00 | 0.00 | 86 | |
| 20260504044655 | 6 | 175 | 0.0 | 0.0 | 0.00 | 0.00 | 0.00 | 86 | |
| 20260504044152 | 6 | 178 | 0.0 | 1.6 | 0.00 | 0.00 | 0.00 | 85 | |
| 20260504043649 | 6 | 230 | 3.2 | 3.2 | 0.00 | 0.00 | 0.00 | 86 | |
| 20260504043146 | 6 | 215 | 3.2 | 3.2 | 0.00 | 0.00 | 0.00 | 85 | |
| 20260504042644 | 6 | 151 | 0.0 | 0.0 | 0.00 | 0.00 | 0.00 | 83 | |
| 20260504042140 | 6 | 148 | 0.0 | 0.0 | 0.00 | 0.00 | 0.00 | 83 | |
| 20260504041636 | 6 | 154 | 0.0 | 0.0 | 0.00 | 0.00 | 0.00 | 84 | |
| 20260504041132 | 6 | 136 | 1.6 | 1.6 | 0.00 | 0.00 | 0.00 | 84 | |
| 20260504040629 | 6 | 155 | 0.0 | 0.0 | 0.00 | 0.00 | 0.00 | 83 | |
| 20260504040126 | 5 | 112 | 3.2 | 3.2 | 0.00 | 0.00 | 0.00 | 83 | |
| 20260504035623 | 5 | 149 | 0.0 | 1.6 | 0.00 | 0.00 | 0.00 | 86 | |
| 20260504035119 | 5 | 130 | 1.6 | 1.6 | 0.00 | 0.00 | 0.00 | 87 | |
| 20260504034618 | 5 | 138 | 1.6 | 1.6 | 0.00 | 0.00 | 0.00 | 88 | |
| 20260504034114 | 5 | 117 | 1.6 | 1.6 | 0.00 | 0.00 | 0.00 | 89 | |
| 20260504033612 | 5 | 127 | 1.6 | 1.6 | 0.00 | 0.00 | 0.00 | 89 | |
| 20260504033109 | 5 | 166 | 0.0 | 0.0 | 0.00 | 0.00 | 0.00 | 89 | |
| 20260504032606 | 5 | 166 | 0.0 | 0.0 | 0.00 | 0.00 | 0.00 | 88 | |
| 20260504032103 | 5 | 167 | 0.0 | 0.0 | 0.00 | 0.00 | 0.00 | 88 | |
| 20260504031600 | 5 | 175 | 0.0 | 1.6 | 0.00 | 0.00 | 0.00 | 87 | |
| 20260504031056 | 5 | 185 | 0.0 | 1.6 | 0.00 | 0.00 | 0.00 | 90 | |
| 20260504030553 | 5 | 172 | 0.0 | 3.2 | 0.00 | 0.00 | 0.00 | 89 | |
| 20260504030049 | 4 | 196 | 1.6 | 1.6 | 0.00 | 0.00 | 0.00 | 91 | |
| 20260504025547 | 3 | 111 | 1.6 | 3.2 | 0.00 | 0.00 | 0.00 | 91 | |
| 20260504025043 | 3 | 156 | 0.0 | 0.0 | 0.00 | 0.00 | 0.00 | 92 | |
| 20260504024540 | 3 | 160 | 0.0 | 0.0 | 0.00 | 0.00 | 0.00 | 93 | |
| 20260504024037 | 3 | 161 | 0.0 | 0.0 | 0.00 | 0.00 | 0.00 | 92 | |
| 20260504023534 | 3 | 160 | 0.0 | 0.0 | 0.00 | 0.00 | 0.00 | 91 | |
| 20260504023030 | 3 | 160 | 0.0 | 0.0 | 0.00 | 0.00 | 0.00 | 91 | |
| 20260504022526 | 4 | 157 | 0.0 | 0.0 | 0.00 | 0.00 | 0.00 | 90 | |
| 20260504022022 | 5 | 156 | 0.0 | 0.0 | 0.00 | 0.00 | 0.00 | 89 | |
| 20260504021520 | 5 | 149 | 0.0 | 0.0 | 0.00 | 0.00 | 0.00 | 88 | |
| 20260504021017 | 5 | 149 | 0.0 | 0.0 | 0.00 | 0.00 | 0.00 | 85 | |
| 20260504020514 | 5 | 153 | 0.0 | 0.0 | 0.00 | 0.00 | 0.00 | 83 | |
| 20260504020010 | 5 | 153 | 0.0 | 0.0 | 0.00 | 0.00 | 0.00 | 81 | |
| 20260504015507 | 6 | 149 | 0.0 | 0.0 | 0.00 | 0.00 | 0.00 | 81 | |
| 20260504015002 | 5 | 141 | 1.6 | 1.6 | 0.00 | 0.00 | 0.00 | 81 | |
| 20260504014459 | 6 | 157 | 0.0 | 0.0 | 0.00 | 0.00 | 0.00 | 82 | |
| 20260504013955 | 6 | 152 | 0.0 | 0.0 | 0.00 | 0.00 | 0.00 | 79 | |
| 20260504013454 | 6 | 168 | 0.0 | 0.0 | 0.00 | 0.00 | 0.00 | 76 | |
| 20260504012949 | 6 | 163 | 0.0 | 0.0 | 0.00 | 0.00 | 0.00 | 77 | |
| 20260504012448 | 6 | 169 | 0.0 | 1.6 | 0.00 | 0.00 | 0.00 | 77 | |
| 20260504011946 | 6 | 164 | 0.0 | 0.0 | 0.00 | 0.00 | 0.00 | 79 | |
| 20260504011442 | 7 | 167 | 0.0 | 0.0 | 0.00 | 0.00 | 0.00 | 78 | |
| 20260504010938 | 7 | 175 | 0.0 | 0.0 | 0.00 | 0.00 | 0.00 | 78 | |
| 20260504010434 | 7 | 165 | 0.0 | 0.0 | 0.00 | 0.00 | 0.00 | 70 | |
| 20260504005930 | 7 | 162 | 0.0 | 0.0 | 0.00 | 0.00 | 0.00 | 73 | |
| 20260504005427 | 7 | 167 | 0.0 | 0.0 | 0.00 | 0.00 | 0.00 | 74 | |
| 20260504004924 | 7 | 173 | 0.0 | 0.0 | 0.00 | 0.00 | 0.00 | 73 | |
| 20260504004422 | 8 | 162 | 0.0 | 0.0 | 0.00 | 0.00 | 0.00 | 68 | |
| 20260504003919 | 8 | 159 | 0.0 | 0.0 | 0.00 | 0.00 | 0.00 | 68 | |
| 20260504003415 | 9 | 169 | 0.0 | 0.0 | 0.00 | 0.00 | 0.00 | 68 | |
| 20260504002912 | 10 | 161 | 0.0 | 0.0 | 0.00 | 0.00 | 0.00 | 58 | |
| 20260504002409 | 10 | 144 | 0.0 | 1.6 | 0.00 | 0.00 | 0.00 | 63 | |
| 20260504001907 | 11 | 160 | 0.0 | 0.0 | 0.00 | 0.00 | 0.00 | 55 | |
| 20260504001404 | 11 | 180 | 0.0 | 1.6 | 0.00 | 0.00 | 0.00 | 56 | |
| 20260504000900 | 11 | 173 | 0.0 | 0.0 | 0.00 | 0.00 | 0.00 | 56 | |
| 20260504000357 | 12 | 168 | 0.0 | 1.6 | 0.00 | 0.00 | 0.00 | 55 | |
| 20260503235855 | 12 | 167 | 0.0 | 1.6 | 0.00 | 0.00 | 0.00 | 51 | |
| 20260503235353 | 13 | 162 | 0.0 | 1.6 | 0.00 | 0.00 | 0.00 | 47 | |
| 20260503234849 | 13 | 160 | 0.0 | 0.0 | 0.00 | 0.00 | 0.00 | 43 | |
| 20260503234347 | 14 | 212 | 1.6 | 3.2 | 0.00 | 0.00 | 0.00 | 40 | |
| 20260503233845 | 15 | 208 | 1.6 | 3.2 | 0.00 | 0.00 | 0.00 | 41 | |
| 20260503233341 | 16 | 202 | 3.2 | 3.2 | 0.00 | 0.00 | 0.00 | 36 | |
| 20260503232837 | 16 | 193 | 4.8 | 4.8 | 0.00 | 0.00 | 0.00 | 31 | |
| 20260503232335 | 16 | 236 | 3.2 | 9.7 | 0.00 | 0.00 | 0.00 | 35 | |
| 20260503231833 | 17 | 230 | 4.8 | 9.7 | 0.00 | 0.00 | 0.00 | 30 | |
| 20260503231330 | 17 | 219 | 3.2 | 4.8 | 0.00 | 0.00 | 0.00 | 31 | |
| 20260503230825 | 17 | 233 | 4.8 | 6.4 | 0.00 | 0.00 | 0.00 | 28 | |
| 20260503230322 | 17 | 216 | 1.6 | 4.8 | 0.00 | 0.00 | 0.00 | 31 | |
| 20260503225820 | 17 | 164 | 9.7 | 14.5 | 0.00 | 0.00 | 0.00 | 28 | |
| 20260503225316 | 16 | 172 | 3.2 | 11.3 | 0.00 | 0.00 | 0.00 | 29 | |
| 20260503224812 | 16 | 250 | 12.9 | 14.5 | 0.00 | 0.00 | 0.00 | 29 | |
| 20260503224310 | 17 | 301 | 6.4 | 12.9 | 0.00 | 0.00 | 0.00 | 29 | |
| 20260503223807 | 17 | 237 | 8.0 | 9.7 | 0.00 | 0.00 | 0.00 | 30 | |
| 20260503223305 | 17 | 222 | 6.4 | 9.7 | 0.00 | 0.00 | 0.00 | 29 | |
| 20260503222800 | 18 | 172 | 4.8 | 9.7 | 0.00 | 0.00 | 0.00 | 30 | |
| 20260503222259 | 17 | 253 | 6.4 | 6.4 | 0.00 | 0.00 | 0.00 | 31 | |
| 20260503221757 | 17 | 105 | 3.2 | 4.8 | 0.00 | 0.00 | 0.00 | 31 | |
| 20260503221254 | 17 | 245 | 4.8 | 11.3 | 0.00 | 0.00 | 0.00 | 29 | |
| 20260503220751 | 17 | 150 | 4.8 | 6.4 | 0.00 | 0.00 | 0.00 | 29 | |
| 20260503220248 | 17 | 239 | 6.4 | 11.3 | 0.00 | 0.00 | 0.00 | 30 | |
| 20260503215744 | 17 | 250 | 14.5 | 16.1 | 0.00 | 0.00 | 0.00 | 28 | |
| 20260503215242 | 18 | 226 | 12.9 | 14.5 | 0.00 | 0.00 | 0.00 | 28 | |
| 20260503214740 | 17 | 238 | 6.4 | 11.3 | 0.00 | 0.00 | 0.00 | 29 | |
| 20260503214236 | 18 | 250 | 9.7 | 12.9 | 0.00 | 0.00 | 0.00 | 29 | |
| 20260503213734 | 17 | 180 | 4.8 | 4.8 | 0.00 | 0.00 | 0.00 | 28 | |
| 20260503213231 | 17 | 233 | 3.2 | 9.7 | 0.00 | 0.00 | 0.00 | 31 | |
| 20260503212728 | 17 | 223 | 4.8 | 11.3 | 0.00 | 0.00 | 0.00 | 30 | |
| 20260503212226 | 17 | 257 | 12.9 | 16.1 | 0.00 | 0.00 | 0.00 | 29 | |
| 20260503211723 | 17 | 252 | 6.4 | 16.1 | 0.00 | 0.00 | 0.00 | 28 | |
| 20260503211219 | 17 | 255 | 12.9 | 24.1 | 0.00 | 0.00 | 0.00 | 29 | |
| 20260503210715 | 17 | 246 | 9.7 | 12.9 | 0.00 | 0.00 | 0.00 | 30 | |
| 20260503210212 | 16 | 192 | 11.3 | 17.7 | 0.00 | 0.00 | 0.00 | 29 | |
| 20260503205707 | 16 | 65 | 3.2 | 12.9 | 0.00 | 0.00 | 0.00 | 29 | |
| 20260503205204 | 16 | 64 | 6.4 | 17.7 | 0.00 | 0.00 | 0.00 | 30 | |
| 20260503204700 | 16 | 285 | 11.3 | 14.5 | 0.00 | 0.00 | 0.00 | 31 | |
| 20260503204158 | 16 | 16 | 9.7 | 16.1 | 0.00 | 0.00 | 0.00 | 29 | |
| 20260503203655 | 17 | 2 | 14.5 | 16.1 | 0.00 | 0.00 | 0.00 | 28 | |
| 20260503203153 | 16 | 217 | 0.0 | 4.8 | 0.00 | 0.00 | 0.00 | 28 | |
| 20260503202649 | 17 | 229 | 11.3 | 12.9 | 0.00 | 0.00 | 0.00 | 29 | |
| 20260503202148 | 16 | 227 | 6.4 | 9.7 | 0.00 | 0.00 | 0.00 | 30 | |
| 20260503201646 | 16 | 188 | 4.8 | 14.5 | 0.00 | 0.00 | 0.00 | 30 | |
| 20260503201143 | 16 | 337 | 8.0 | 20.9 | 0.00 | 0.00 | 0.00 | 28 | |
| 20260503200638 | 16 | 177 | 14.5 | 29.0 | 0.00 | 0.00 | 0.00 | 30 | |
| 20260503200135 | 16 | 348 | 6.4 | 6.4 | 0.00 | 0.00 | 0.00 | 30 | |
| 20260503195632 | 16 | 207 | 14.5 | 20.9 | 0.00 | 0.00 | 0.00 | 29 | |
| 20260503195129 | 16 | 130 | 8.0 | 12.9 | 0.00 | 0.00 | 0.00 | 30 | |
| 20260503194626 | 16 | 219 | 9.7 | 12.9 | 0.00 | 0.00 | 0.00 | 31 | |
| 20260503194121 | 17 | 275 | 14.5 | 24.1 | 0.00 | 0.00 | 0.00 | 31 | |
| 20260503193619 | 17 | 204 | 11.3 | 16.1 | 0.00 | 0.00 | 0.00 | 31 | |
| 20260503193114 | 17 | 188 | 6.4 | 12.9 | 0.00 | 0.00 | 0.00 | 30 | |
| 20260503192610 | 16 | 177 | 4.8 | 4.8 | 0.00 | 0.00 | 0.00 | 29 | |
| 20260503192106 | 16 | 281 | 4.8 | 14.5 | 0.00 | 0.00 | 0.00 | 30 | |
| 20260503191603 | 16 | 235 | 4.8 | 14.5 | 0.00 | 0.00 | 0.00 | 32 | |
| 20260503191059 | 16 | 242 | 12.9 | 22.5 | 0.00 | 0.00 | 0.00 | 32 | |
| 20260503190556 | 16 | 256 | 19.3 | 24.1 | 0.00 | 0.00 | 0.00 | 31 | |
| 20260503190054 | 15 | 243 | 8.0 | 11.3 | 0.00 | 0.00 | 0.00 | 33 | |
| 20260503185550 | 15 | 260 | 14.5 | 20.9 | 0.00 | 0.00 | 0.00 | 33 | |
| 20260503185050 | 17 | 250 | 8.0 | 11.3 | 0.00 | 0.00 | 0.00 | 33 | |
| 20260503184546 | 17 | 96 | 1.6 | 3.2 | 0.00 | 0.00 | 0.00 | 31 | |
| 20260503184043 | 15 | 143 | 1.6 | 9.7 | 0.00 | 0.00 | 0.00 | 33 | |
| 20260503183539 | 16 | 138 | 6.4 | 11.3 | 0.00 | 0.00 | 0.00 | 33 | |
| 20260503183037 | 15 | 170 | 0.0 | 9.7 | 0.00 | 0.00 | 0.00 | 32 | |
| 20260503182535 | 15 | 253 | 11.3 | 24.1 | 0.00 | 0.00 | 0.00 | 34 | |
| 20260503182033 | 15 | 261 | 9.7 | 12.9 | 0.00 | 0.00 | 0.00 | 33 | |
| 20260503181529 | 15 | 214 | 6.4 | 9.7 | 0.00 | 0.00 | 0.00 | 33 | |
| 20260503181025 | 15 | 251 | 11.3 | 12.9 | 0.00 | 0.00 | 0.00 | 33 | |
| 20260503180523 | 14 | 42 | 9.7 | 12.9 | 0.00 | 0.00 | 0.00 | 34 | |
| 20260503180020 | 15 | 233 | 16.1 | 24.1 | 0.00 | 0.00 | 0.00 | 36 | |
| 20260503175518 | 15 | 175 | 8.0 | 20.9 | 0.00 | 0.00 | 0.00 | 35 | |
| 20260503175014 | 13 | 279 | 14.5 | 27.4 | 0.00 | 0.00 | 0.00 | 36 | |
| 20260503174512 | 15 | 208 | 3.2 | 17.7 | 0.00 | 0.00 | 0.00 | 36 | |
| 20260503174008 | 13 | 160 | 0.0 | 4.8 | 0.00 | 0.00 | 0.00 | 36 | |
| 20260503173503 | 13 | 284 | 12.9 | 16.1 | 0.00 | 0.00 | 0.00 | 36 | |
| 20260503173000 | 13 | 263 | 11.3 | 14.5 | 0.00 | 0.00 | 0.00 | 39 | |
| 20260503172457 | 13 | 235 | 9.7 | 17.7 | 0.00 | 0.00 | 0.00 | 37 | |
| 20260503171954 | 13 | 268 | 11.3 | 24.1 | 0.00 | 0.00 | 0.00 | 38 | |
| 20260503171450 | 12 | 252 | 12.9 | 16.1 | 0.00 | 0.00 | 0.00 | 37 | |
| 20260503170948 | 12 | 247 | 9.7 | 33.8 | 0.00 | 0.00 | 0.00 | 39 | |
| 20260503170444 | 13 | 259 | 14.5 | 25.7 | 0.00 | 0.00 | 0.00 | 38 |